Flag for United Kingdom Weather past 2 weeks in Birmingham, England, United Kingdom

Now
63 °F

Scattered clouds.


Feels Like: 63 °F
Forecast: 53 / 72 °F
Wind: 8 mph from Southwest

Location: Birmingham / Airport

Current Time: Aug 1, 2015 at 11:29:41 AM

Latest Report: Aug 1, 2015 at 10:50 AM


Visibility: N/A

Pressure: 29.98 "Hg

Humidity: 64%

Dew point: 50 °F

Location of BirminghamLocation

Historic Weather in Birmingham — Graph

°F

Birmingham temperature yesterday

Maximum temperature yesterday: 68 °F (at 3:20 PM)
Minimum temperature yesterday: 41 °F (at 3:50 AM)
Average temperature yesterday: 57 °F

Past Weeks' High & Low Weather Summary

 TemperatureHumidityPressure
High73 °F (Jul 20, 3:50 PM)100% (Jul 19, 6:50 AM)30.15 "Hg (Jul 19, 6:50 AM)
Low41 °F (Jul 31, 3:50 AM)32% (Jul 31, 6:50 PM)29.36 "Hg (Jul 26, 7:50 PM)
Average59 °F73%29.85 "Hg
* Reported Jul 17 10:20 AM — Aug 1 10:20 AM, Birmingham, Weather by CustomWeather, © 2015

Note: Actual official high and low records may vary slightly from our data, if they occured in-between our weather recording intervals... More about our weather records

Advertising

Birmingham weather history for previous 24 hours

 ConditionsComfort  
Time TempWeatherWind HumidityBarometerVisibility
10:20 AM
Sat, Aug 1
63 °FPassing clouds.8 mph64%29.98 "HgN/A
9:50 AM61 °FPassing clouds.8 mph68%29.98 "HgN/A
9:20 AM59 °FPassing clouds.7 mph72%29.98 "HgN/A
8:50 AM57 °FPassing clouds.8 mph77%29.98 "HgN/A
8:20 AM55 °FPassing clouds.7 mph77%29.95 "HgN/A
7:50 AM54 °FPassing clouds.6 mph82%29.95 "HgN/A
7:20 AM54 °FSunny.8 mph82%29.95 "Hg10 mi
6:50 AM54 °FPassing clouds.7 mph77%29.95 "HgN/A
6:20 AM52 °FPassing clouds.5 mph82%29.95 "HgN/A
5:50 AM50 °FClear.6 mph88%29.95 "Hg10 mi
5:20 AM50 °FClear.7 mph88%29.95 "Hg10 mi
4:50 AM50 °FClear.7 mph88%29.95 "Hg10 mi
4:20 AM50 °FClear.3 mph82%29.95 "Hg10 mi
3:50 AM50 °FClear.3 mph88%29.98 "Hg10 mi
3:20 AM54 °FClear.3 mph77%29.98 "Hg10 mi
2:50 AM54 °FPassing clouds.5 mph77%29.98 "HgN/A
2:20 AM54 °FPassing clouds.6 mph77%29.98 "HgN/A
1:50 AM52 °FClear.5 mph82%29.98 "Hg10 mi
1:20 AM54 °FClear.3 mph77%29.98 "Hg10 mi
12:50 AM55 °FClear.3 mph72%29.98 "Hg10 mi
12:20 AM55 °FClear.5 mph72%29.98 "Hg10 mi
11:50 PM
Fri, Jul 31
54 °FClear.2 mph72%29.98 "Hg10 mi
11:20 PM57 °FClear.3 mph67%29.98 "Hg10 mi
10:50 PM59 °FClear.5 mph59%29.98 "Hg10 mi
10:20 PM59 °FPassing clouds.5 mph55%29.98 "HgN/A
9:50 PM61 °FSunny.5 mph48%29.95 "Hg10 mi
9:20 PM61 °FPassing clouds.5 mph48%29.95 "HgN/A
8:50 PM63 °FSunny.3 mph45%29.95 "Hg10 mi
8:20 PM64 °FPassing clouds.5 mph40%29.95 "HgN/A
7:50 PM64 °FPassing clouds.7 mph40%29.95 "HgN/A
7:20 PM66 °FPassing clouds.7 mph35%29.95 "HgN/A
6:50 PM66 °FPassing clouds.9 mph32%29.98 "HgN/A
6:20 PM68 °FPassing clouds.7 mph35%29.98 "HgN/A
5:50 PM68 °FPassing clouds.8 mph33%29.98 "HgN/A
5:20 PM68 °FPassing clouds.9 mph35%29.98 "HgN/A
4:50 PM68 °FPassing clouds.8 mph40%29.98 "HgN/A
4:20 PM68 °FPassing clouds.9 mph40%30.01 "HgN/A
3:50 PM68 °FPassing clouds.8 mph40%30.01 "HgN/A
3:20 PM68 °FPassing clouds.8 mph40%30.01 "HgN/A
2:50 PM66 °FPassing clouds.9 mph46%30.04 "HgN/A
2:20 PM66 °FPassing clouds.8 mph43%30.04 "HgN/A
1:50 PM66 °FScattered clouds.7 mph46%30.04 "HgN/A
1:20 PM64 °FScattered clouds.9 mph46%30.07 "HgN/A
12:50 PM64 °FScattered clouds.8 mph46%30.07 "HgN/A
12:20 PM63 °FScattered clouds.6 mph49%30.07 "HgN/A
11:50 AM63 °FScattered clouds.6 mph52%30.07 "HgN/A
11:20 AM63 °FPartly sunny.8 mph52%30.09 "HgN/A
Weather by CustomWeather, © 2015

See weather overviewHow to use our weather pages